EW0401 Weather Reports


time (UTC)temp
C
wind
direction
speed
KPH
gust
KPH
rain 1hr
cm
rain 24hr
cm
rain mn
cm
humidity
%
barometer
mb
20260902091603 27 202 0.0 11.3 0.00 0.41 0.00 87 1013.7
20260902084601 27 270 3.2 12.9 0.00 0.41 0.00 86 1013.7
20260902083100 27 213 6.4 22.5 0.00 0.41 0.00 86 1013.6
20260902081559 27 213 1.6 16.1 0.00 0.41 0.00 86 1013.7
20260902074602 27 176 4.8 19.3 0.00 0.41 0.00 86 1013.8
20260902073101 27 289 1.6 12.9 0.00 0.41 0.00 87 1013.8
20260902071606 27 0 1.6 12.9 0.00 0.41 0.00 87 1014.0
20260902070105 27 263 0.0 11.3 0.00 0.41 0.00 87 1014.0
20260902064600 27 0 1.6 6.4 0.00 0.41 0.00 87 1013.8
20260902063109 27 0 1.6 8.0 0.00 0.41 0.00 87 1013.9
20260902061602 27 260 3.2 12.9 0.00 0.41 0.00 86 1013.8
20260902060128 27 265 1.6 9.7 0.00 0.41 0.00 85 1013.6
20260902054600 27 0 1.6 9.7 0.00 0.41 0.00 84 1013.7
20260902053100 26 249 0.0 9.7 0.00 0.41 0.00 85 1013.6
20260902051558 26 0 1.6 11.3 0.00 0.41 0.00 85 1013.5
20260902044604 26 0 0.0 1.6 0.00 0.41 0.41 86 1013.8
20260902043102 26 0 0.0 4.8 0.00 0.41 0.41 86 1013.9
20260902041611 26 0 0.0 4.8 0.00 0.41 0.41 86 1013.8
20260902040104 26 265 3.2 9.7 0.00 0.41 0.41 86 1013.8
20260902034604 26 0 0.0 8.0 0.00 0.41 0.41 86 1013.9
20260902033103 26 261 1.6 12.9 0.00 0.41 0.41 86 1013.9
20260902031603 26 0 0.0 6.4 0.00 0.41 0.41 87 1013.7
20260902030109 26 0 0.0 4.8 0.00 0.41 0.41 87 1013.6
20260902024601 26 0 1.6 8.0 0.00 0.41 0.41 88 1013.4
20260902023057 26 277 0.0 11.3 0.00 0.41 0.41 88 1013.0
20260902021600 25 0 3.2 9.7 0.00 0.41 0.41 89 1012.7
20260902014603 25 0 0.0 4.8 0.00 0.41 0.41 89 1012.5
20260902013100 25 0 0.0 3.2 0.00 0.41 0.41 89 1012.4
20260902011609 25 0 0.0 3.2 0.00 0.41 0.41 89 1012.3
20260902010100 25 271 0.0 4.8 0.00 0.41 0.41 89 1012.4
20260902004602 25 0 0.0 4.8 0.00 0.41 0.41 90 1012.2
20260902003106 25 274 0.0 4.8 0.00 0.41 0.41 90 1012.4
20260902001602 25 0 0.0 9.7 0.00 0.41 0.41 90 1012.7
20260902000120 25 0 0.0 3.2 0.00 0.41 0.41 90 1012.6
20260901234604 25 0 0.0 3.2 0.00 0.41 0.41 90 1012.5
20260901233108 25 0 0.0 4.8 0.00 0.41 0.41 90 1012.5
20260901231606 25 0 0.0 3.2 0.03 0.41 0.41 90 1012.7
20260901230115 25 0 0.0 1.6 0.08 0.41 0.41 90 1012.9
20260901224606 25 0 0.0 3.2 0.10 0.43 0.41 90 1013.0
20260901223117 25 0 0.0 0.0 0.20 0.43 0.41 90 1013.1
20260901221615 25 0 0.0 3.2 0.25 0.41 0.38 90 1013.1
20260901220134 25 0 0.0 3.2 0.20 0.36 0.33 89 1013.2
20260901214603 25 0 0.0 4.8 0.18 0.33 0.30 88 1013.5
20260901213128 26 0 0.0 8.0 0.08 0.23 0.20 87 1013.8
20260901211604 26 0 3.2 6.4 0.00 0.15 0.13 87 1014.0
20260901210106 26 0 0.0 0.0 0.00 0.15 0.13 87 1013.8
20260901204610 27 0 0.0 0.0 0.08 0.18 0.13 88 1013.8
20260901203110 27 0 0.0 0.0 0.13 0.18 0.13 87 1013.6
20260901201603 27 0 0.0 3.2 0.13 0.18 0.13 87 1013.6
20260901200059 27 0 0.0 3.2 0.13 0.18 0.13 86 1013.9
20260901194602 28 0 0.0 3.2 0.05 0.10 0.05 81 1014.5
20260901193115 30 0 0.0 3.2 0.00 0.05 0.00 78 1014.8
20260901191600 30 0 0.0 6.4 0.00 0.05 0.00 78 1014.6
20260901190105 30 240 1.6 14.5 0.00 0.05 0.00 78 1014.6
20260901184604 30 0 0.0 11.3 0.00 0.05 0.00 80 1014.5
20260901183103 30 0 0.0 8.0 0.00 0.05 0.00 80 1014.8
20260901181559 30 263 0.0 6.4 0.00 0.05 0.00 80 1014.9
20260901180105 29 0 0.0 9.7 0.00 0.05 0.00 82 1015.1
20260901174601 29 259 0.0 9.7 0.00 0.05 0.00 82 1015.3
20260901173104 29 0 0.0 6.4 0.00 0.05 0.00 82 1015.5
20260901171604 28 270 0.0 3.2 0.00 0.05 0.00 82 1016.0
20260901170108 28 0 0.0 3.2 0.00 0.05 0.00 83 1016.1
20260901164625 28 352 0.0 4.8 0.00 0.05 0.00 83 1016.3
20260901163101 27 63 0.0 3.2 0.00 0.05 0.00 84 1016.5
20260901161601 27 0 0.0 0.0 0.00 0.05 0.00 85 1016.3
20260901160106 27 0 0.0 0.0 0.00 0.05 0.00 85 1016.4
20260901154600 27 0 0.0 9.7 0.00 0.05 0.00 85 1016.4
20260901153103 27 0 0.0 6.4 0.00 0.05 0.00 85 1016.4
20260901151611 27 0 1.6 9.7 0.00 0.05 0.00 84 1016.3
20260901150108 27 72 1.6 6.4 0.00 0.05 0.00 84 1016.3
20260901144603 27 61 0.0 3.2 0.00 0.05 0.00 84 1016.4
20260901143104 27 0 0.0 1.6 0.00 0.05 0.00 84 1016.4
20260901141602 27 0 0.0 3.2 0.00 0.05 0.00 84 1016.3
20260901140107 27 0 0.0 3.2 0.00 0.05 0.00 84 1016.1
20260901134620 27 0 0.0 1.6 0.00 0.05 0.00 85 1016.1
20260901133101 27 0 0.0 0.0 0.00 0.05 0.00 85 1016.1
20260901131600 27 67 0.0 9.7 0.00 0.05 0.00 86 1015.7
20260901131558 26 0 0.0 9.7 0.00 0.05 0.00 85 1016.0
20260901131501 26 67 0.0 9.7 0.00 0.05 0.00 86 1015.5
20260901131048 26 67 0.0 9.7 0.00 0.05 0.00 86 1015.7
20260901130529 26 74 1.6 9.7 0.00 0.05 0.00 86 1015.8
20260901130105 26 0 0.0 3.2 0.00 0.05 0.00 86 1016.1
20260901130038 26 247 0.0 3.2 0.00 0.05 0.00 86 1015.8
20260901130008 26 247 0.0 3.2 0.00 0.05 0.00 86 1015.6
20260901124605 26 0 0.0 0.0 0.00 0.05 0.00 86 1015.9
20260901123108 26 0 0.0 0.0 0.00 0.05 0.00 87 1015.5
20260901121602 26 0 0.0 3.2 0.00 0.05 0.00 87 1015.3
20260901120106 26 0 0.0 0.0 0.00 0.05 0.00 87 1015.4
20260901114557 26 0 0.0 0.0 0.00 0.05 0.00 87 1015.2
20260901113104 26 0 0.0 0.0 0.00 0.05 0.00 87 1015.2
20260901111603 25 0 0.0 1.6 0.00 0.05 0.00 87 1015.2
20260901104606 25 0 0.0 3.2 0.00 0.05 0.00 88 1015.1
20260901103100 25 0 0.0 0.0 0.00 0.05 0.00 89 1015.1
20260901101609 25 0 0.0 0.0 0.00 0.05 0.00 89 1015.0
20260901100100 25 0 0.0 0.0 0.00 0.05 0.00 89 1015.0
20260901094608 25 0 0.0 0.0 0.00 0.05 0.00 88 1015.2
20260901093105 25 0 0.0 0.0 0.00 0.05 0.00 88 1015.4